Hourly Data Report for January 06, 2017

TORONTO CITY
ONTARIO

43°40'00.000" N
79°24'00.000" W
112.50 m
6158355
71508
XTO

Download Data

Hourly Data (January 2017)
Hourly Data Report for January 6, 2017
TIME
LST
Temp Definition
°C
Dew Point Definition
°C
Rel Hum Definition
%
Precip. Amount Definition
mm

Wind Dir Definition
10's deg

Wind Spd Definition
km/h
Visibility Definition
km
Stn Press Definition
kPa
Hmdx Definition


Wind Chill Definition


Weather Definition


00:00 -9.8 -15.3 64 0.0 LegendMM LegendMM   99.98     LegendNANA
01:00 -10.3 -14.9 69 0.0 LegendMM LegendMM   100.04     LegendNANA
02:00 -10.5 -15.1 69 0.0 LegendMM LegendMM   100.05     LegendNANA
03:00 -10.6 -14.9 71 0.0 LegendMM LegendMM   100.10     LegendNANA
04:00 -10.8 -14.8 72 0.0 LegendMM LegendMM   100.10     LegendNANA
05:00 -11.1 -15.2 72 0.0 LegendMM LegendMM   100.12     LegendNANA
06:00 -11.3 -15.4 72 0.0 LegendMM LegendMM   100.18     LegendNANA
07:00 -11.5 -15.6 71 0.0 LegendMM LegendMM   100.25     LegendNANA
08:00 -11.7 -16.0 70 0.0 LegendMM LegendMM   100.30     LegendNANA
09:00 -11.1 -16.0 67 0.0 LegendMM LegendMM   100.37     LegendNANA
10:00 -9.5 -15.6 61 0.0 LegendMM LegendMM   100.42     LegendNANA
11:00 -7.8 -15.9 52 0.0 LegendMM LegendMM   100.53     LegendNANA
12:00 -6.6 -15.2 51 0.0 LegendMM LegendMM   100.51     LegendNANA
13:00 -6.8 -16.0 48 0.0 LegendMM LegendMM   100.45     LegendNANA
14:00 -6.5 -16.3 46 0.0 LegendMM LegendMM   100.50     LegendNANA
15:00 -6.8 -16.3 47 0.0 LegendMM LegendMM   100.56     LegendNANA
16:00 -7.2 -16.6 47 0.0 LegendMM LegendMM   100.63     LegendNANA
17:00 -8.2 -16.3 52 0.0 LegendMM LegendMM   100.71     LegendNANA
18:00 -9.0 -16.5 54 0.0 LegendMM LegendMM   100.86     LegendNANA
19:00 -9.3 -16.7 55 0.0 LegendMM LegendMM   100.96     LegendNANA
20:00 -9.3 -16.0 59 0.0 LegendMM LegendMM   101.01     LegendNANA
21:00 -10.0 -16.0 61 0.0 LegendMM LegendMM   101.03     LegendNANA
22:00 -10.1 -15.7 63 0.0 LegendMM LegendMM   101.06     LegendNANA
23:00 -10.3 -15.2 67 0.0 LegendMM LegendMM   101.09     LegendNANA

Notes on Data Quality.

Legend

  • E = Estimated
  • M = Missing
  • NA = Not Available*
  • [empty] = Indicates an unobserved value
Date modified: